Location: Mountain View
(37.3861°N, 122.0839°W)
Time: 13:40:15
(UTC-07:00)

Tiangong - Pass Details

Date: 26 September 2021
Orbit: 382 x 385 km, 41.5° (Epoch: 18 October)

Event Time Altitude Azimuth Distance (km) Brightness Sun altitude
Exits shadow 06:08:16 16° 242° (WSW) 1,076 2.7 -11.1°
Maximum altitude 06:10:37 76° 157° (SSE) 395 1.1 -10.6°
Drops below altitude 10° 06:13:45 10° 72° (ENE) 1,395 5.4 -10.0°
Sets 06:15:57 0° 70° (ENE) 2,296 6.8 -9.5°
